This demonstration page uses our WeatherBlox Daily Observations layout. Learn more.

Left ArrowRight Arrow

36.19886, -115.1175

Hourly Observations for August 29, 2021

Temp ( °F °C ) Dew Point ( °F °C ) Humidity (%) Winds ( mph kmh ) Pressure ( in mb ) Visibility ( mi km ) Precip ( " mm )
12:53 am 00:53 Clear 93 33.9 39 3.9 15 15 SE 5 7 29.74 1007 10 16 0.00 0.00
1:53 am 01:53 Clear 89 31.7 37 2.8 16 16 NW 5 7 29.75 1007 10 16 0.00 0.00
2:53 am 02:53 Clear 86 30 42 5.6 21 21 WNW 5 7 29.75 1007 10 16 0.00 0.00
3:53 am 03:53 Clear 86 30 36 2.2 17 17 WNW 7 11 29.74 1007 10 16 0.00 0.00
4:53 am 04:53 Clear 85 29.4 40 4.4 20 20 Calm 29.75 1007 10 16 0.00 0.00
5:53 am 05:53 Clear 84 28.9 39 3.9 20 20 ENE 3 6 29.77 1008 10 16 0.00 0.00
6:53 am 06:53 Sunny 84 28.9 38 3.3 19 19 WNW 8 13 29.79 1009 10 16 0.00 0.00
7:53 am 07:53 Sunny 89 31.7 43 6.1 20 20 Calm 29.80 1009 10 16 0.00 0.00
8:53 am 08:53 Sunny 95 35 46 7.8 19 19 Calm 29.80 1009 10 16 0.00 0.00
9:53 am 09:53 Sunny 97 36.1 50 10 20 20 E 5 7 29.80 1009 10 16 0.00 0.00
10:53 am 10:53 Sunny 100 37.8 50 10 18 18 ESE 5 7 29.79 1009 10 16 0.00 0.00
11:53 am 11:53 Sunny 102 38.9 50 10 17 17 E 9 15 29.78 1008 10 16 0.00 0.00
12:53 pm 12:53 Sunny 105 40.6 49 9.4 15 15 E 8 13 29.75 1007 10 16 0.00 0.00
1:53 pm 13:53 Sunny 106 41.1 41 5 11 11 SE 13 20 29.72 1007 10 16 0.00 0.00
2:53 pm 14:53 Sunny 107 41.7 41 5 11 11 SE 8 13 29.69 1006 10 16 0.00 0.00
3:53 pm 15:53 Sunny 108 42.2 41 5 10 10 VRB 3 6 29.67 1005 10 16 0.00 0.00
4:53 pm 16:53 Sunny 107 41.7 42 5.6 11 11 E 5 7 29.66 1004 10 16 0.00 0.00
5:53 pm 17:53 Sunny 107 41.7 42 5.6 11 11 SE 10 17 29.65 1004 10 16 0.00 0.00
6:53 pm 18:53 Sunny 105 40.6 43 6.1 12 12 ESE 8 13 29.65 1004 10 16 0.00 0.00
7:53 pm 19:53 Clear 103 39.4 44 6.7 13 13 ESE 7 11 29.67 1005 10 16 0.00 0.00
8:53 pm 20:53 Clear 100 37.8 49 9.4 18 18 S 14 22 29.69 1005 10 16 0.00 0.00
9:53 pm 21:53 Clear 98 36.7 48 8.9 18 18 S 13 20 29.70 1006 10 16 0.00 0.00
10:53 pm 22:53 Clear 96 35.6 50 10 21 21 S 10 17 29.72 1006 10 16 0.00 0.00
11:53 pm 23:53 Clear 93 33.9 50 10 23 23 SE 5 7 29.72 1006 10 16 0.00 0.00

Powered by AerisWeather